Location: Beetenbrück
(52.8113°N, 9.5946°E)
Time: 21:44:35
(UTC+00:00)

Cosmos 1892 Rocket - Pass Details

Date: 14 April 2026
Orbit: 599 x 626 km, 82.5° (Epoch: 12 May)

Event Time Altitude Azimuth Distance (km) Brightness Sun altitude
Rises 23:15:38 0° 348° (NNW) 2,921 8.3 -27.5°
Reaches altitude 10° 23:17:53 10° 349° (NNW) 2,006 7.1 -27.5°
Enters shadow 23:21:23 55° 348° (NNW) 752 4.2 -27.5°
